CW3590 Weather Reports


Display with metric or nautical units.
time (UTC)temp
F
wind
direction
speed
MPH
gust
MPH
rain 1hr
in
rain 24hr
in
rain mn
in
humidity
%
barometer
mb
20260502212016 76 333 2.0 6.0 0.00 0.01 0.00 42 1017.6
20260502211015 76 325 3.0 8.0 0.00 0.01 0.00 42 1017.8
20260502210015 75 39 2.0 5.0 0.00 0.01 0.00 46 1017.9
20260502205015 73 39 1.0 7.0 0.00 0.01 0.00 46 1017.9
20260502204015 72 29 2.0 10.0 0.00 0.01 0.00 44 1018.2
20260502203015 74 17 2.0 7.0 0.00 0.01 0.00 46 1018.3
20260502202015 73 28 3.0 6.0 0.00 0.01 0.00 44 1018.3
20260502200015 74 11 3.0 7.0 0.00 0.01 0.00 44 1018.4
20260502195014 73 15 3.0 8.0 0.00 0.01 0.00 45 1018.6
20260502194015 73 355 3.0 9.0 0.00 0.01 0.00 47 1018.7
20260502193015 73 23 3.0 7.0 0.00 0.01 0.00 45 1018.9
20260502192015 73 293 3.0 9.0 0.00 0.01 0.00 49 1019.1
20260502191016 73 26 3.0 9.0 0.00 0.01 0.00 52 1019.2
20260502190015 73 42 3.0 9.0 0.00 0.01 0.00 50 1019.2
20260502184015 73 316 3.0 7.0 0.00 0.01 0.00 48 1019.5
20260502163015 65 317 3.0 7.0 0.00 0.03 0.00 69 1020.4
20260502162015 65 26 2.0 6.0 0.00 0.03 0.00 71 1020.3
20260502161015 64 308 2.0 5.0 0.00 0.04 0.00 74 1020.2
20260502151015 60 277 1.0 4.0 0.00 0.09 0.00 88 1020.1
20260502123015 52 289 1.0 3.0 0.00 0.18 0.00 92 1018.6
20260502122014 52 285 1.0 2.0 0.00 0.19 0.00 92 1018.6
20260502114014 52 298 1.0 4.0 0.00 0.21 0.00 91 1017.9
20260502112015 52 0 0.0 2.0 0.00 0.22 0.00 92 1017.5
20260502110015 52 286 1.0 3.0 0.00 0.22 0.00 92 1017.4
20260502105014 52 282 1.0 3.0 0.00 0.23 0.00 92 1017.4
20260502103016 53 290 1.0 3.0 0.00 0.24 0.00 92 1017.2
20260502102014 53 295 1.0 3.0 0.00 0.24 0.00 92 1017.2
20260502101015 53 311 1.0 4.0 0.00 0.24 0.00 92 1017.1
20260502091015 54 0 0.0 3.0 0.00 0.24 0.00 91 1016.7
20260502071015 55 0 0.0 2.0 0.00 0.24 0.00 92 1016.9
20260502070014 55 299 1.0 2.0 0.00 0.24 0.00 91 1016.9
20260502065014 55 0 0.0 3.0 0.00 0.24 0.00 92 1016.9
20260502064014 55 0 0.0 1.0 0.00 0.24 0.00 91 1016.8
20260502063015 55 0 0.0 2.0 0.00 0.24 0.00 91 1016.9
20260502062014 55 297 1.0 2.0 0.00 0.24 0.00 91 1016.8
20260502061014 55 308 1.0 3.0 0.00 0.24 0.00 91 1016.9
20260502060015 55 0 0.0 3.0 0.00 0.24 0.00 91 1016.8
20260502055014 55 0 0.0 0.0 0.00 0.24 0.00 91 1016.8
20260502054014 55 0 0.0 0.0 0.00 0.24 0.00 91 1016.7
20260502053015 55 0 0.0 0.0 0.00 0.24 0.00 91 1016.6
20260502052014 55 0 0.0 0.0 0.00 0.24 0.00 91 1016.6
20260502051014 55 0 0.0 0.0 0.00 0.24 0.00 91 1016.6
20260502050014 56 0 0.0 0.0 0.00 0.24 0.00 91 1016.5
20260502044014 56 0 0.0 0.0 0.00 0.24 0.24 91 1016.7
20260502043015 56 0 0.0 0.0 0.00 0.24 0.24 91 1016.6
20260502042013 56 0 0.0 0.0 0.00 0.24 0.24 91 1016.4
20260502040014 56 0 0.0 0.0 0.00 0.24 0.24 90 1016.4
20260502034014 56 0 0.0 0.0 0.00 0.24 0.24 90 1016.3
20260502032014 56 0 0.0 0.0 0.00 0.24 0.24 90 1016.4
20260502031014 56 0 0.0 0.0 0.00 0.24 0.24 90 1016.4
20260502030014 56 0 0.0 0.0 0.00 0.24 0.24 89 1016.0
20260502025015 56 0 0.0 0.0 0.00 0.24 0.24 89 1015.7
20260502024013 56 0 0.0 0.0 0.00 0.24 0.24 89 1015.6
20260502023014 56 0 0.0 0.0 0.00 0.24 0.24 89 1015.6
20260502022014 56 0 0.0 1.0 0.00 0.25 0.24 89 1015.4
20260502021014 56 0 0.0 2.0 0.00 0.25 0.24 89 1015.5
20260502020014 56 0 0.0 1.0 0.00 0.25 0.24 88 1015.3
20260502015014 57 0 0.0 2.0 0.00 0.25 0.24 88 1015.5
20260502014014 57 0 0.0 0.0 0.00 0.25 0.24 88 1016.2
20260502011014 57 0 0.0 0.0 0.00 0.25 0.24 87 1015.3
20260502010015 57 0 0.0 0.0 0.01 0.25 0.24 87 1015.2
20260502005013 57 45 1.0 2.0 0.01 0.25 0.24 87 1014.8
20260502004013 57 0 0.0 2.0 0.01 0.25 0.24 86 1014.4
20260502003014 57 45 1.0 1.0 0.01 0.25 0.24 86 1014.8
20260502002015 58 44 1.0 3.0 0.01 0.25 0.24 86 1014.5
20260502001013 58 42 1.0 3.0 0.01 0.25 0.24 86 1014.6
20260502000014 58 358 1.0 3.0 0.00 0.24 0.23 85 1014.5
20260501235014 58 345 1.0 2.0 0.00 0.24 0.23 85 1014.5
20260501234015 58 13 1.0 3.0 0.00 0.24 0.23 85 1014.5
20260501233014 58 41 1.0 3.0 0.00 0.24 0.23 85 1014.2
20260501231014 58 51 2.0 5.0 0.00 0.24 0.23 84 1013.9
20260501225014 58 20 2.0 8.0 0.00 0.24 0.23 83 1013.7
20260501223014 58 48 2.0 8.0 0.00 0.24 0.23 84 1013.7
20260501222014 58 62 2.0 7.0 0.00 0.24 0.23 84 1013.6
20260501221015 58 42 2.0 8.0 0.00 0.24 0.23 83 1013.6
20260501220013 58 62 3.0 8.0 0.00 0.24 0.23 83 1013.7
20260501215014 58 48 4.0 11.0 0.00 0.24 0.23 84 1012.5
20260501214014 58 49 3.0 13.0 0.00 0.24 0.23 84 1012.0